TimeMDT,TemperatureF,Dew PointF,Humidity,Sea Level PressureIn,VisibilityMPH,Wind Direction,Wind SpeedMPH,Gust SpeedMPH,PrecipitationIn,Events,Conditions,WindDirDegrees,DateUTC
12:56 AM,26.1,21.9,84,30.39,-9999.0,Calm,Calm,-,N/A,,Unknown,0,2013-10-26 06:56:00
1:56 AM,25.0,21.0,85,30.38,-9999.0,Calm,Calm,-,N/A,,Unknown,0,2013-10-26 07:56:00
2:56 AM,24.1,21.0,88,30.38,-9999.0,Calm,Calm,-,N/A,,Unknown,0,2013-10-26 08:56:00
3:56 AM,23.0,21.0,92,30.40,-9999.0,Calm,Calm,-,N/A,,Unknown,0,2013-10-26 09:56:00
4:56 AM,23.0,21.0,92,30.40,-9999.0,Calm,Calm,-,N/A,,Unknown,0,2013-10-26 10:56:00
5:56 AM,21.9,21.0,96,30.45,-9999.0,Calm,Calm,-,N/A,,Unknown,0,2013-10-26 11:56:00
6:56 AM,21.9,19.9,92,30.49,-9999.0,Calm,Calm,-,N/A,,Unknown,0,2013-10-26 12:56:00
7:56 AM,21.0,19.9,96,30.51,-9999.0,Calm,Calm,-,N/A,,Unknown,0,2013-10-26 13:56:00
8:56 AM,25.0,23.0,92,30.51,-9999.0,Calm,Calm,-,N/A,,Unknown,0,2013-10-26 14:56:00
9:56 AM,36.0,30.0,79,30.46,-9999.0,Calm,Calm,-,N/A,,Unknown,0,2013-10-26 15:56:00
10:56 AM,37.9,30.9,76,30.46,-9999.0,East,3.5,-,N/A,,Unknown,100,2013-10-26 16:56:00
11:56 AM,41.0,28.0,60,30.45,-9999.0,Calm,Calm,-,N/A,,Unknown,0,2013-10-26 17:56:00
12:56 PM,44.1,28.0,53,30.42,-9999.0,Calm,Calm,-,N/A,,Unknown,0,2013-10-26 18:56:00
1:56 PM,46.0,28.0,50,30.38,-9999.0,ESE,3.5,-,N/A,,Unknown,120,2013-10-26 19:56:00
2:56 PM,50.0,28.9,44,30.33,-9999.0,Variable,3.5,-,N/A,,Unknown,0,2013-10-26 20:56:00
3:56 PM,54.0,17.1,23,30.30,-9999.0,Variable,4.6,16.1,N/A,,Unknown,0,2013-10-26 21:56:00
4:56 PM,52.0,19.0,27,30.30,-9999.0,West,4.6,-,N/A,,Unknown,270,2013-10-26 22:56:00
5:56 PM,46.0,21.0,37,30.34,-9999.0,West,4.6,-,N/A,,Unknown,280,2013-10-26 23:56:00
6:56 PM,35.1,23.0,61,30.39,-9999.0,Calm,Calm,-,N/A,,Unknown,0,2013-10-27 00:56:00
7:56 PM,28.9,21.9,75,30.43,-9999.0,Calm,Calm,-,N/A,,Unknown,0,2013-10-27 01:56:00
8:56 PM,27.0,21.9,81,30.40,-9999.0,Calm,Calm,-,N/A,,Unknown,0,2013-10-27 02:56:00
9:56 PM,27.0,21.9,81,30.33,-9999.0,Calm,Calm,-,N/A,,Unknown,0,2013-10-27 03:56:00
10:56 PM,26.1,21.9,84,30.31,-9999.0,Calm,Calm,-,N/A,,Unknown,0,2013-10-27 04:56:00
11:56 PM,26.1,21.9,84,30.27,-9999.0,Calm,Calm,-,N/A,,Unknown,0,2013-10-27 05:56:00